User: anonymous
Location: Caltech
(34.1382°N, 118.1253°W)
Time: 22:58:46
(UTC-07:00)
Language:

Cosmos 2219 Rocket - Orbit

View from above orbital plane
View from above orbital plane
View from above satellite
View from above satellite

Ground track
Ground track

The orbit data is extracted from the following two-line orbital elements,

1 22220U 92076B   14273.48411917  .00000347  00000-0  19875-3 0  4222
2 22220 071.0025 344.4895 0014052 334.0113 114.5404 14.16319696130491
Epoch (UTC): 30 September 2014 11:37:07
Eccentricity: 0.0014052
inclination: 71.0025°
perigee height: 827 km
apogee height: 848 km
right ascension of ascending node: 344.4895°
argument of perigee: 334.0113°
revolutions per day: 14.16319696
mean anomaly at epoch: 114.5404°
orbit number at epoch: 13049

The dashed part of the orbit path shows where the satellite is in the earth's shadow,  

DLR